This is the latest recevied weather packets stored in our database for station/object GW4288. If no packets are shown the sender has not sent any weather packets the latest 10 day(s).
| Time | Temp. | Humidity | Pressure | Rain* | Wind** | Luminosity | Snow |
|---|---|---|---|---|---|---|---|
| 1788269525 | 22.78° C | 51% | 1021.3 hPa | 0 mm | - | 348 W/m² | - |
| 1788269403 | 23.33° C | 53% | 1021.3 hPa | 0 mm | - | 326 W/m² | - |
| 1788269284 | 23.89° C | 52% | 1021.4 hPa | 0 mm | - | 272 W/m² | - |
| 1788269162 | 23.33° C | 53% | 1021.4 hPa | 0 mm | - | 326 W/m² | - |
| 1788268819 | 21.67° C | 56% | 1021.6 hPa | 0 mm | - | 91 W/m² | - |
| 1788268682 | 21.67° C | 57% | 1021.3 hPa | 0 mm | - | 83 W/m² | - |
| 1788268564 | 21.67° C | 55% | 1021.4 hPa | 0 mm | - | 76 W/m² | - |
| 1788268447 | 21.67° C | 56% | 1021.4 hPa | 0 mm | - | 117 W/m² | - |
| 1788268329 | 22.22° C | 56% | 1021.5 hPa | 0 mm | - | 76 W/m² | - |
| 1788268206 | 23.33° C | 55% | 1021.2 hPa | 0 mm | - | 78 W/m² | - |
| 1788268159 | 23.33° C | 58% | 1021.2 hPa | 0 mm | - | 373 W/m² | - |
| 1788267964 | 23.33° C | 55% | 1021.2 hPa | 0 mm | - | 309 W/m² | - |
| 1788267848 | 23.89° C | 53% | 1021.4 hPa | 0 mm | - | 371 W/m² | - |
| 1788267724 | 23.33° C | 53% | 1021.3 hPa | 0 mm | - | 416 W/m² | - |
| 1788267605 | 23.89° C | 52% | 1021.3 hPa | 0 mm | - | 115 W/m² | - |
| 1788267482 | 23.89° C | 52% | 1021.3 hPa | 0 mm | - | 86 W/m² | - |
| 1788267367 | 23.33° C | 54% | 1021.4 hPa | 0 mm | - | 407 W/m² | - |
| 1788267245 | 23.33° C | 54% | 1021.2 hPa | 0 mm | - | 408 W/m² | - |
| 1788267127 | 23.33° C | 54% | 1021.2 hPa | 0 mm | - | 421 W/m² | - |
| 1788267006 | 23.33° C | 55% | 1021.4 hPa | 0 mm | - | 429 W/m² | - |
| 1788266885 | 23.33° C | 54% | 1021.5 hPa | 0 mm | - | 420 W/m² | - |
| 1788266765 | 23.33° C | 55% | 1021.3 hPa | 0 mm | - | 408 W/m² | - |
| 1788266686 | 22.78° C | 55% | 1021.3 hPa | 0 mm | - | 401 W/m² | - |
| 1788266659 | 22.78° C | 57% | 1021.5 hPa | 0 mm | - | 402 W/m² | - |
| 1788266407 | 22.78° C | 57% | 1021.5 hPa | 0 mm | - | 83 W/m² | - |
* Rain latest hour (hover to see other rain measurements)
** Current wind speed in m/s (hover to see current wind gust speed)